This is the latest recevied weather packets stored in our database for station/object NK7I. If no packets are shown the sender has not sent any weather packets the latest 10 day(s).
| Time | Temp. | Humidity | Pressure | Rain* | Wind** | Luminosity | Snow |
|---|---|---|---|---|---|---|---|
| 1777669882 | 23.33° C | 31% | 1015.2 hPa | 0 mm | - | 1195 W/m² | - |
| 1777669582 | 23.33° C | 31% | 1015.4 hPa | 0 mm | - | 1209 W/m² | - |
| 1777669283 | 23.33° C | 33% | 1015.4 hPa | 0 mm | - | 1215 W/m² | - |
| 1777668982 | 23.33° C | 31% | 1015.5 hPa | 0 mm | - | 1188 W/m² | - |
| 1777668683 | 23.33° C | 31% | 1015.5 hPa | 0 mm | - | 1239 W/m² | - |
| 1777668382 | 23.33° C | 31% | 1015.4 hPa | 0 mm | - | 1238 W/m² | - |
| 1777668082 | 22.78° C | 29% | 1015.5 hPa | 0 mm | - | 1223 W/m² | - |
| 1777667783 | 23.33° C | 29% | 1015.5 hPa | 0 mm | - | 1250 W/m² | - |
| 1777667482 | 23.33° C | 34% | 1015.7 hPa | 0 mm | - | 1238 W/m² | - |
| 1777667182 | 23.33° C | 29% | 1015.7 hPa | 0 mm | - | 1120 W/m² | - |
| 1777666883 | 23.33° C | 30% | 1015.7 hPa | 0 mm | - | 1267 W/m² | - |
| 1777666582 | 23.33° C | 34% | 1015.7 hPa | 0 mm | - | 1266 W/m² | - |
| 1777666282 | 22.78° C | 32% | 1015.8 hPa | 0 mm | - | 1269 W/m² | - |
| 1777665982 | 22.78° C | 29% | 1015.8 hPa | 0 mm | - | 1276 W/m² | - |
| 1777665682 | 22.78° C | 31% | 1015.8 hPa | 0 mm | - | 1259 W/m² | - |
| 1777665382 | 22.78° C | 31% | 1016 hPa | 0 mm | - | 1271 W/m² | - |
| 1777665082 | 22.78° C | 32% | 1016.1 hPa | 0 mm | - | 1274 W/m² | - |
| 1777664782 | 22.78° C | 32% | 1016.1 hPa | 0 mm | - | 1278 W/m² | - |
| 1777664482 | 22.22° C | 30% | 1016.1 hPa | 0 mm | - | 1288 W/m² | - |
| 1777664183 | 22.22° C | 32% | 1016.2 hPa | 0 mm | - | 1259 W/m² | - |
| 1777663882 | 22.22° C | 30% | 1016.3 hPa | 0 mm | - | 1215 W/m² | - |
| 1777663583 | 22.22° C | 31% | 1016.4 hPa | 0 mm | - | 1280 W/m² | - |
| 1777663282 | 22.22° C | 34% | 1016.4 hPa | 0 mm | - | 1283 W/m² | - |
| 1777662982 | 21.67° C | 33% | 1016.4 hPa | 0 mm | - | 1278 W/m² | - |
| 1777662683 | 21.67° C | 35% | 1016.5 hPa | 0 mm | - | 1252 W/m² | - |
* Rain latest hour (hover to see other rain measurements)
** Current wind speed in m/s (hover to see current wind gust speed)